Date String (YYYY-MM-DD hh:mm:ss) UTC,Instrument flags,Ambient pressure (hPa),Sample flow (lpm),Bypass flow (lpm),Sample temperature (°C),Ambient temperature (°C),ASC tube jacket temperature (°C),LED temperature (°C),Box temperature (°C),Sample RH (%),Span deviation,Mass concentration (μg/m³),Mass concentration (μg/m³),Mass concentration (μg/m³)
DateTimeUTC,F1_M11,P_M11,Q1_M11,Q2_M11,T1_M11,T2_M11,T3_M11,T4_M11,T5_M11,U1_M11,ZSPAN_M11,X0_M11,X2_M11,X1_M11
2022-04-08 12:00:00,,0832.5,5.00,0.00,22.2,21.4,00.0,31.1,23.9,07.6,0000.0,0008.36,0002.61,0001.43
2022-04-08 12:01:00,,0832.4,5.00,0.00,22.1,21.4,00.0,31.1,23.9,07.7,0000.0,0008.68,0002.65,0001.44
2022-04-08 12:02:00,,0832.5,5.00,0.00,22.1,21.3,00.0,31.1,23.8,07.6,0000.0,0008.91,0002.56,0001.43
2022-04-08 12:03:00,,0832.5,5.00,0.00,22.1,21.3,00.0,31.1,23.8,07.6,0000.0,0008.95,0002.58,0001.43
2022-04-08 12:04:00,,0832.5,5.00,0.00,22.1,21.2,00.0,31.1,23.8,07.6,0000.0,0008.90,0002.59,0001.43
2022-04-08 12:05:00,,0832.5,5.00,0.00,22.1,21.2,00.0,31.1,23.8,07.7,0000.0,0008.85,0002.64,0001.45
2022-04-08 12:06:00,,0832.5,4.99,0.00,22.0,21.2,00.0,31.1,23.7,07.7,0000.0,0008.57,0002.62,0001.44
2022-04-08 12:07:00,,0832.5,5.00,0.00,22.0,21.1,00.0,31.1,23.7,07.6,0000.0,0008.15,0002.63,0001.46
2022-04-08 12:08:00,,0832.5,4.99,0.00,22.0,21.1,00.0,31.1,23.7,07.6,0000.0,0007.89,0002.64,0001.48
2022-04-08 12:09:00,,0832.5,5.01,0.00,22.0,21.1,00.0,31.1,23.7,07.6,0000.0,0007.63,0002.63,0001.48
2022-04-08 12:10:00,,0832.5,5.01,0.00,22.0,21.1,00.0,31.1,23.6,07.6,0000.0,0007.70,0002.64,0001.50
2022-04-08 12:11:00,,0832.5,5.01,0.00,22.0,21.0,00.0,31.0,23.6,07.7,0000.0,0007.68,0002.67,0001.50
2022-04-08 12:12:00,,0832.5,4.98,0.00,21.9,21.0,00.0,31.0,23.6,07.8,0000.0,0008.05,0002.59,0001.50
2022-04-08 12:13:00,,0832.6,5.01,0.00,21.9,21.0,00.0,31.0,23.6,07.8,0000.0,0007.72,0002.59,0001.51
2022-04-08 12:14:00,,0832.5,5.01,0.00,21.9,21.3,00.0,31.0,23.7,07.8,0000.0,0007.46,0002.60,0001.53
2022-04-08 12:15:00,,0832.5,5.00,0.00,22.0,22.1,00.0,31.0,23.9,07.7,0000.0,0007.50,0002.66,0001.54
2022-04-08 12:16:00,,0832.6,4.99,0.00,22.2,22.9,00.0,31.1,24.2,07.6,0000.0,0007.55,0002.66,0001.53
2022-04-08 12:17:00,,0832.6,5.01,0.00,22.3,22.9,00.0,31.1,24.3,07.6,0000.0,0007.93,0002.72,0001.54
2022-04-08 12:18:00,,0832.6,4.99,0.00,22.3,22.6,00.0,31.1,24.2,07.6,0000.0,0007.89,0002.73,0001.53
2022-04-08 12:19:00,,0832.6,5.00,0.00,22.3,22.4,00.0,31.1,24.1,07.6,0000.0,0008.20,0002.74,0001.53
2022-04-08 12:20:00,,0832.6,5.01,0.00,22.3,22.1,00.0,31.2,24.1,07.6,0000.0,0008.40,0002.77,0001.52
2022-04-08 12:21:00,,0832.6,4.99,0.00,22.3,21.9,00.0,31.2,24.0,07.6,0000.0,0008.58,0002.75,0001.52
2022-04-08 12:22:00,,0832.7,5.01,0.00,22.2,21.8,00.0,31.2,24.0,07.5,0000.0,0008.58,0002.81,0001.55
2022-04-08 12:23:00,,0832.6,4.99,0.00,22.2,21.7,00.0,31.2,24.0,07.6,0000.0,0008.22,0002.89,0001.56
2022-04-08 12:24:00,,0832.7,5.00,0.00,22.2,21.6,00.0,31.2,23.9,07.7,0000.0,0008.20,0002.93,0001.56
2022-04-08 12:25:00,,0832.6,5.01,0.00,22.2,21.5,00.0,31.2,23.9,07.8,0000.0,0008.25,0002.96,0001.56
2022-04-08 12:26:00,,0832.5,5.00,0.00,22.2,21.4,00.0,31.2,23.9,07.8,0000.0,0008.21,0002.90,0001.55
2022-04-08 12:27:00,,0832.5,5.01,0.00,22.1,21.3,00.0,31.1,23.8,07.8,0000.0,0008.07,0002.88,0001.55
2022-04-08 12:28:00,,0832.5,4.98,0.00,22.1,21.3,00.0,31.1,23.8,07.8,0000.0,0008.01,0002.79,0001.54
2022-04-08 12:29:00,,0832.5,5.00,0.00,22.1,21.3,00.0,31.1,23.8,07.8,0000.0,0008.23,0002.76,0001.53
2022-04-08 12:30:00,,0832.5,5.01,0.00,22.1,21.2,00.0,31.1,23.7,07.8,0000.0,0007.92,0002.77,0001.54
2022-04-08 12:31:00,,0832.6,5.00,0.00,22.1,21.2,00.0,31.1,23.7,07.8,0000.0,0007.94,0002.73,0001.54
2022-04-08 12:32:00,,0832.6,5.00,0.00,22.0,21.1,00.0,31.1,23.7,07.8,0000.0,0007.88,0002.73,0001.54
2022-04-08 12:33:00,,0832.5,5.00,0.00,22.0,21.1,00.0,31.1,23.7,07.8,0000.0,0007.99,0002.70,0001.54
2022-04-08 12:34:00,,0832.5,4.99,0.00,22.0,21.1,00.0,31.1,23.7,07.8,0000.0,0007.93,0002.63,0001.54
2022-04-08 12:35:00,,0832.5,5.00,0.00,22.0,21.1,00.0,31.1,23.7,07.8,0000.0,0007.77,0002.58,0001.53
2022-04-08 12:36:00,,0832.5,5.00,0.00,22.0,21.2,00.0,31.1,23.7,07.9,0000.0,0007.94,0002.61,0001.53
2022-04-08 12:37:00,,0832.6,5.00,0.00,22.1,21.9,00.0,31.1,23.9,07.8,0000.0,0007.95,0002.60,0001.53
2022-04-08 12:38:00,,0832.6,5.01,0.00,22.2,22.8,00.0,31.1,24.2,07.7,0000.0,0007.93,0002.57,0001.51
2022-04-08 12:39:00,,0832.6,5.00,0.00,22.3,23.1,00.0,31.2,24.3,07.7,0000.0,0007.81,0002.53,0001.51
2022-04-08 12:40:00,,0832.5,4.98,0.00,22.4,22.8,00.0,31.2,24.3,07.6,0000.0,0007.90,0002.56,0001.52
2022-04-08 12:41:00,,0832.5,4.99,0.00,22.4,22.5,00.0,31.2,24.2,07.7,0000.0,0007.94,0002.56,0001.51
2022-04-08 12:42:00,,0832.5,5.02,0.00,22.3,22.3,00.0,31.2,24.2,07.7,0000.0,0008.03,0002.64,0001.50
2022-04-08 12:43:00,,0832.5,4.99,0.00,22.3,22.1,00.0,31.2,24.1,07.7,0000.0,0007.82,0002.68,0001.49
2022-04-08 12:44:00,,0832.5,5.01,0.00,22.3,21.9,00.0,31.2,24.1,07.7,0000.0,0008.05,0002.74,0001.49
2022-04-08 12:45:00,,0832.5,4.99,0.00,22.3,21.8,00.0,31.2,24.0,07.7,0000.0,0008.04,0002.74,0001.48
2022-04-08 12:46:00,,0832.5,5.00,0.00,22.2,21.7,00.0,31.2,24.0,07.7,0000.0,0008.22,0002.73,0001.49
2022-04-08 12:47:00,,0832.5,5.00,0.00,22.2,21.6,00.0,31.2,24.0,07.6,0000.0,0008.15,0002.73,0001.50
2022-04-08 12:48:00,,0832.5,5.00,0.00,22.2,21.5,00.0,31.2,23.9,07.6,0000.0,0008.17,0002.74,0001.52
2022-04-08 12:49:00,,0832.5,4.99,0.00,22.2,21.4,00.0,31.2,23.9,07.6,0000.0,0008.56,0002.81,0001.53
2022-04-08 12:50:00,,0832.5,5.01,0.00,22.2,21.4,00.0,31.2,23.9,07.7,0000.0,0009.01,0002.89,0001.54
2022-04-08 12:51:00,,0832.5,5.01,0.00,22.2,21.3,00.0,31.2,23.9,07.7,0000.0,0008.78,0002.92,0001.54
2022-04-08 12:52:00,,0832.5,5.00,0.00,22.1,21.3,00.0,31.2,23.9,07.7,0000.0,0008.68,0002.91,0001.54
2022-04-08 12:53:00,,0832.5,5.00,0.00,22.1,21.2,00.0,31.2,23.8,07.7,0000.0,0008.48,0002.89,0001.56
2022-04-08 12:54:00,,0832.5,5.00,0.00,22.1,21.2,00.0,31.2,23.8,07.8,0000.0,0008.37,0002.89,0001.57
2022-04-08 12:55:00,,0832.5,5.01,0.00,22.1,21.2,00.0,31.1,23.8,07.7,0000.0,0008.50,0002.81,0001.57
2022-04-08 12:56:00,,0832.5,5.00,0.00,22.1,21.2,00.0,31.1,23.8,07.7,0000.0,0008.97,0002.81,0001.57
2022-04-08 12:57:00,,0832.5,4.98,0.00,22.1,21.1,00.0,31.1,23.7,07.8,0000.0,0008.68,0002.83,0001.56
2022-04-08 12:58:00,,0832.5,5.01,0.00,22.0,21.1,00.0,31.1,23.7,07.8,0000.0,0008.68,0002.79,0001.56
2022-04-08 12:59:00,,0832.5,5.00,0.00,22.1,21.3,00.0,31.1,23.8,07.7,0000.0,0008.95,0002.76,0001.53
